EW5954 Weather Reports


Display with metric or nautical units.
time (UTC)temp
F
wind
direction
speed
MPH
gust
MPH
rain 1hr
in
rain 24hr
in
rain mn
in
humidity
%
barometer
mb
20260510175802 54 46 2.0 8.0 0.00 0.00 0.00 44
20260510175258 54 77 5.0 11.0 0.00 0.00 0.00 42
20260510174754 55 33 3.0 11.0 0.00 0.00 0.00 41
20260510174252 55 91 8.0 11.0 0.00 0.00 0.00 40
20260510173748 55 280 7.0 14.0 0.00 0.00 0.00 41
20260510173244 55 327 4.0 9.0 0.00 0.00 0.00 40
20260510172739 56 56 4.0 10.0 0.00 0.00 0.00 38
20260510172235 56 86 5.0 9.0 0.00 0.00 0.00 39
20260510171732 54 359 5.0 10.0 0.00 0.00 0.00 40
20260510171230 54 338 2.0 8.0 0.00 0.00 0.00 42
20260510170727 57 72 7.0 11.0 0.00 0.00 0.00 40
20260510170223 56 70 3.0 10.0 0.00 0.00 0.00 40
20260510165719 57 37 2.0 10.0 0.00 0.00 0.00 42
20260510165215 55 38 4.0 9.0 0.00 0.00 0.00 42
20260510164713 56 71 3.0 14.0 0.00 0.00 0.00 43
20260510164210 55 149 5.0 9.0 0.00 0.00 0.00 42
20260510163705 55 63 5.0 8.0 0.00 0.00 0.00 41
20260510163201 55 8 1.0 8.0 0.00 0.00 0.00 42
20260510162700 56 347 4.0 8.0 0.00 0.00 0.00 41
20260510162157 55 23 5.0 10.0 0.00 0.00 0.00 43
20260510161653 55 30 4.0 10.0 0.00 0.00 0.00 43
20260510161150 54 128 3.0 11.0 0.00 0.00 0.00 43
20260510160647 54 158 4.0 8.0 0.00 0.00 0.00 44
20260510160142 53 10 5.0 13.0 0.00 0.00 0.00 45
20260510155638 54 44 7.0 9.0 0.00 0.00 0.00 42
20260510155134 54 320 5.0 10.0 0.00 0.00 0.00 43
20260510154630 53 17 5.0 8.0 0.00 0.00 0.00 44
20260510154126 53 198 4.0 8.0 0.00 0.00 0.00 46
20260510153621 54 143 3.0 13.0 0.00 0.00 0.00 43
20260510153118 54 271 3.0 8.0 0.00 0.00 0.00 45
20260510152615 54 77 3.0 7.0 0.00 0.00 0.00 44
20260510152111 53 21 4.0 8.0 0.00 0.00 0.00 44
20260510151607 53 125 3.0 7.0 0.00 0.00 0.00 44
20260510151105 52 122 2.0 7.0 0.00 0.00 0.00 46
20260510150600 52 32 3.0 9.0 0.00 0.00 0.00 45
20260510150056 52 8 7.0 10.0 0.00 0.00 0.00 44
20260510145553 53 341 2.0 3.0 0.00 0.00 0.00 44
20260510145050 52 37 4.0 7.0 0.00 0.00 0.00 46
20260510144546 52 125 2.0 9.0 0.00 0.00 0.00 46
20260510144042 52 358 7.0 9.0 0.00 0.00 0.00 46
20260510143537 51 359 3.0 6.0 0.00 0.00 0.00 46
20260510143034 51 329 3.0 6.0 0.00 0.00 0.00 46
20260510142531 51 75 6.0 10.0 0.00 0.00 0.00 46
20260510142028 51 30 2.0 7.0 0.00 0.00 0.00 48
20260510141524 51 76 5.0 10.0 0.00 0.00 0.00 48
20260510141022 50 62 4.0 8.0 0.00 0.00 0.00 49
20260510140518 50 16 2.0 6.0 0.00 0.00 0.00 49
20260510140017 50 52 2.0 10.0 0.00 0.00 0.00 50
20260510135513 50 136 5.0 8.0 0.00 0.00 0.00 50
20260510135010 49 54 4.0 9.0 0.00 0.00 0.00 50
20260510134507 49 49 1.0 6.0 0.00 0.00 0.00 52
20260510134004 49 94 4.0 9.0 0.00 0.00 0.00 51
20260510133500 49 48 4.0 11.0 0.00 0.00 0.00 52
20260510132955 49 41 2.0 8.0 0.00 0.00 0.00 55
20260510132453 48 57 5.0 10.0 0.00 0.00 0.00 54
20260510131949 48 26 4.0 8.0 0.00 0.00 0.00 56
20260510131448 47 143 2.0 13.0 0.00 0.00 0.00 57
20260510130944 47 62 5.0 8.0 0.00 0.00 0.00 58
20260510130441 47 16 7.0 9.0 0.00 0.00 0.00 58
20260510125938 47 106 2.0 5.0 0.00 0.00 0.00 59
20260510125434 46 41 1.0 6.0 0.00 0.00 0.00 61
20260510124931 46 47 5.0 7.0 0.00 0.00 0.00 61
20260510124427 46 83 2.0 3.0 0.00 0.00 0.00 63
20260510123924 45 349 2.0 8.0 0.00 0.00 0.00 63
20260510123420 45 1 3.0 11.0 0.00 0.00 0.00 64
20260510122916 45 52 4.0 10.0 0.00 0.00 0.00 64
20260510122411 44 41 1.0 7.0 0.00 0.00 0.00 66
20260510121907 44 44 3.0 8.0 0.00 0.00 0.00 66
20260510121405 44 76 2.0 6.0 0.00 0.00 0.00 66
20260510120902 44 44 2.0 8.0 0.00 0.00 0.00 67
20260510120359 44 80 4.0 5.0 0.00 0.00 0.00 67
20260510115855 43 69 3.0 5.0 0.00 0.00 0.00 68
20260510115352 43 159 2.0 6.0 0.00 0.00 0.00 69
20260510114848 42 43 4.0 7.0 0.00 0.00 0.00 69
20260510114346 42 353 0.0 5.0 0.00 0.00 0.00 70
20260510113845 42 21 1.0 3.0 0.00 0.00 0.00 71
20260510113342 42 83 2.0 5.0 0.00 0.00 0.00 71
20260510112839 41 23 1.0 5.0 0.00 0.00 0.00 73
20260510112336 41 44 1.0 7.0 0.00 0.00 0.00 74
20260510111832 41 6 1.0 3.0 0.00 0.00 0.00 74
20260510111329 40 9 1.0 2.0 0.00 0.00 0.00 75
20260510110828 40 40 2.0 5.0 0.00 0.00 0.00 76
20260510110326 40 43 2.0 5.0 0.00 0.00 0.00 76
20260510105822 40 23 2.0 6.0 0.00 0.00 0.00 76
20260510105316 40 33 2.0 3.0 0.00 0.00 0.00 76
20260510104813 39 35 1.0 3.0 0.00 0.00 0.00 76
20260510104310 39 351 1.0 6.0 0.00 0.00 0.00 76
20260510103806 39 28 2.0 3.0 0.00 0.00 0.00 76
20260510103303 39 50 1.0 3.0 0.00 0.00 0.00 77
20260510102758 39 24 0.0 3.0 0.00 0.00 0.00 76
20260510102254 39 39 1.0 5.0 0.00 0.00 0.00 76
20260510101751 39 20 3.0 5.0 0.00 0.00 0.00 76
20260510101250 39 78 1.0 3.0 0.00 0.00 0.00 76
20260510100745 39 10 3.0 5.0 0.00 0.00 0.00 77
20260510100243 39 357 2.0 5.0 0.00 0.00 0.00 76
20260510095738 39 75 2.0 2.0 0.00 0.00 0.00 76
20260510095234 40 44 2.0 3.0 0.00 0.00 0.00 76
20260510094733 39 39 2.0 2.0 0.00 0.00 0.00 76
20260510094229 40 25 1.0 3.0 0.00 0.00 0.00 76
20260510093724 40 70 2.0 2.0 0.00 0.00 0.00 76
20260510093222 40 10 1.0 2.0 0.00 0.00 0.00 76
20260510092718 40 23 1.0 2.0 0.00 0.00 0.00 75
20260510092214 40 55 2.0 3.0 0.00 0.00 0.00 75
20260510091710 40 17 1.0 3.0 0.00 0.00 0.00 75
20260510091206 40 46 1.0 2.0 0.00 0.00 0.00 75
20260510090703 40 26 1.0 2.0 0.00 0.00 0.00 74
20260510090200 40 36 1.0 5.0 0.00 0.00 0.00 75
20260510085655 41 39 3.0 5.0 0.00 0.00 0.00 74
20260510085150 41 31 3.0 5.0 0.00 0.00 0.00 74
20260510084647 41 26 1.0 5.0 0.00 0.00 0.00 74
20260510084143 41 354 2.0 6.0 0.00 0.00 0.00 73
20260510083640 41 50 2.0 3.0 0.00 0.00 0.00 73
20260510083137 41 39 3.0 5.0 0.00 0.00 0.00 73
20260510082633 41 38 2.0 8.0 0.00 0.00 0.00 73
20260510082129 41 5 3.0 6.0 0.00 0.00 0.00 73
20260510081624 42 8 1.0 2.0 0.00 0.00 0.00 73
20260510081120 42 21 0.0 7.0 0.00 0.00 0.00 72
20260510080619 42 42 3.0 6.0 0.00 0.00 0.00 72
20260510080116 42 41 2.0 5.0 0.00 0.00 0.00 72
20260510075614 42 29 1.0 5.0 0.00 0.00 0.00 72
20260510075111 42 33 2.0 3.0 0.00 0.00 0.00 72
20260510074607 42 2 3.0 5.0 0.00 0.00 0.00 71
20260510074103 42 357 3.0 6.0 0.00 0.00 0.00 71
20260510073559 43 6 2.0 3.0 0.00 0.00 0.00 71
20260510073057 43 10 3.0 5.0 0.00 0.00 0.00 70
20260510072553 43 43 1.0 2.0 0.00 0.00 0.00 70
20260510072049 43 22 1.0 3.0 0.00 0.00 0.00 70
20260510071545 44 41 2.0 5.0 0.00 0.00 0.00 69
20260510071044 44 22 1.0 6.0 0.00 0.00 0.00 69
20260510070540 44 68 2.0 3.0 0.00 0.00 0.00 69
20260510070037 44 11 3.0 7.0 0.00 0.00 0.00 68
20260510065533 44 46 2.0 7.0 0.00 0.00 0.00 68
20260510065029 45 338 2.0 3.0 0.00 0.00 0.00 68
20260510064526 45 57 3.0 3.0 0.00 0.00 0.00 68
20260510064023 45 40 4.0 5.0 0.00 0.00 0.00 67
20260510063520 46 8 2.0 3.0 0.00 0.00 0.00 67
20260510063017 46 65 1.0 6.0 0.00 0.00 0.00 67
20260510062512 46 3 1.0 5.0 0.00 0.00 0.00 67
20260510062008 46 20 1.0 6.0 0.00 0.00 0.00 68
20260510061505 46 12 1.0 7.0 0.00 0.00 0.00 68
20260510061001 46 15 1.0 5.0 0.00 0.00 0.00 68
20260510060458 46 28 2.0 3.0 0.00 0.00 0.00 68
20260510055954 47 39 1.0 2.0 0.00 0.00 0.00 66
20260510055450 47 6 1.0 6.0 0.00 0.00 0.00 65
20260510054948 47 9 1.0 3.0 0.00 0.00 0.00 66
20260510054443 47 21 2.0 5.0 0.00 0.00 0.00 66
20260510053938 47 37 0.0 3.0 0.00 0.00 0.00 67
20260510053434 47 359 1.0 3.0 0.00 0.00 0.00 67
20260510052931 47 46 1.0 2.0 0.00 0.00 0.00 66
20260510052426 47 10 0.0 1.0 0.00 0.00 0.00 67
20260510051923 48 0 0.0 0.0 0.00 0.00 0.00 67
20260510051419 48 48 0.0 1.0 0.00 0.00 0.00 67
20260510050916 48 18 2.0 3.0 0.00 0.00 0.00 66
20260510050413 48 17 0.0 2.0 0.00 0.00 0.00 67
20260510045910 48 89 2.0 3.0 0.00 0.00 0.00 67
20260510045407 48 36 1.0 2.0 0.00 0.00 0.00 68
20260510044904 49 30 1.0 2.0 0.00 0.00 0.00 68
20260510044401 49 7 0.0 1.0 0.00 0.00 0.00 69
20260510043857 49 357 2.0 5.0 0.00 0.00 0.00 67
20260510043353 49 1 0.0 2.0 0.00 0.00 0.00 68
20260510042851 49 31 0.0 1.0 0.00 0.00 0.00 67
20260510042347 49 25 0.0 2.0 0.00 0.00 0.00 67
20260510041843 49 21 1.0 3.0 0.00 0.00 0.00 65
20260510041340 49 9 0.0 3.0 0.00 0.00 0.00 66
20260510040838 49 52 0.0 5.0 0.00 0.00 0.00 67
20260510040334 50 24 0.0 1.0 0.00 0.00 0.00 68
20260510035830 50 5 4.0 6.0 0.00 0.12 0.12 67
20260510035326 50 21 0.0 1.0 0.00 0.12 0.12 73
20260510034822 50 10 1.0 2.0 0.00 0.12 0.12 73
20260510034320 50 40 0.0 2.0 0.00 0.12 0.12 71
20260510033816 50 37 1.0 3.0 0.00 0.12 0.12 69
20260510033313 50 61 1.0 6.0 0.00 0.12 0.12 69
20260510032810 50 9 2.0 5.0 0.00 0.12 0.12 68
20260510032306 50 357 0.0 7.0 0.00 0.12 0.12 70
20260510031802 51 53 2.0 3.0 0.00 0.12 0.12 70
20260510031257 51 339 0.0 3.0 0.00 0.12 0.12 71
20260510030751 51 26 0.0 2.0 0.00 0.12 0.12 74
20260510030248 51 32 2.0 2.0 0.00 0.12 0.12 76
20260510025746 51 56 2.0 5.0 0.00 0.12 0.12 77
20260510025243 51 4 0.0 1.0 0.00 0.12 0.12 78
20260510024739 51 32 1.0 5.0 0.00 0.12 0.12 78
20260510024236 51 6 0.0 1.0 0.00 0.12 0.12 81
20260510023731 52 16 0.0 2.0 0.00 0.12 0.12 84
20260510023224 52 7 3.0 3.0 0.00 0.12 0.12 85
20260510022720 52 6 0.0 1.0 0.00 0.12 0.12 86
20260510022220 53 39 1.0 5.0 0.00 0.12 0.12 86
20260510021714 53 1 2.0 3.0 0.00 0.12 0.12 86
20260510021212 53 43 2.0 8.0 0.00 0.12 0.12 86
20260510020708 54 75 5.0 9.0 0.00 0.12 0.12 85
20260510020203 55 57 2.0 7.0 0.00 0.12 0.12 83
20260510015659 54 9 2.0 2.0 0.00 0.12 0.12 84
20260510015156 54 37 2.0 8.0 0.00 0.12 0.12 86
20260510014655 54 358 0.0 2.0 0.00 0.12 0.12 86
20260510014153 54 9 1.0 7.0 0.00 0.12 0.12 86
20260510013648 54 5 0.0 8.0 0.00 0.12 0.12 87
20260510013144 54 33 1.0 1.0 0.00 0.12 0.12 88
20260510012644 53 16 1.0 2.0 0.00 0.12 0.12 88
20260510012140 53 8 0.0 0.0 0.00 0.12 0.12 88
20260510011635 53 3 0.0 2.0 0.00 0.12 0.12 89
20260510011131 53 83 0.0 1.0 0.00 0.12 0.12 89
20260510010627 53 31 0.0 1.0 0.00 0.12 0.12 89
20260510010124 53 7 0.0 0.0 0.00 0.12 0.12 89
20260510005620 53 261 1.0 2.0 0.00 0.12 0.12 89
20260510005117 53 340 0.0 1.0 0.00 0.12 0.12 88
20260510004615 53 128 1.0 2.0 0.00 0.12 0.12 88
20260510004113 53 205 0.0 1.0 0.00 0.12 0.12 88
20260510003610 53 349 0.0 1.0 0.00 0.12 0.12 87
20260510003106 53 32 0.0 1.0 0.00 0.12 0.12 87
20260510002600 54 296 3.0 5.0 0.00 0.12 0.12 87
20260510002058 54 68 1.0 3.0 0.00 0.12 0.12 86
20260510001555 54 289 1.0 2.0 0.00 0.12 0.12 86
20260510001054 54 216 1.0 2.0 0.00 0.12 0.12 85
20260510000548 54 130 1.0 6.0 0.00 0.12 0.12 85
20260510000046 54 187 1.0 3.0 0.00 0.12 0.12 84
20260509235542 54 108 1.0 2.0 0.00 0.12 0.12 84
20260509235039 55 8 2.0 7.0 0.00 0.12 0.12 83
20260509234534 55 69 3.0 5.0 0.00 0.12 0.12 83
20260509234033 55 281 1.0 6.0 0.00 0.12 0.12 82
20260509233530 55 205 1.0 2.0 0.00 0.12 0.12 82
20260509233027 55 101 0.0 3.0 0.00 0.12 0.12 82
20260509232524 55 133 2.0 3.0 0.00 0.12 0.12 82
20260509232020 56 359 0.0 5.0 0.00 0.12 0.12 82
20260509231517 55 5 0.0 5.0 0.00 0.12 0.12 82
20260509231015 55 303 2.0 3.0 0.00 0.12 0.12 82
20260509230511 56 273 4.0 6.0 0.00 0.12 0.12 81
20260509230008 56 26 2.0 7.0 0.00 0.12 0.12 81
20260509225504 57 344 0.0 3.0 0.00 0.12 0.12 80
20260509224959 57 290 3.0 9.0 0.00 0.12 0.12 80
20260509224455 57 164 3.0 7.0 0.00 0.12 0.12 80
20260509223952 57 189 5.0 7.0 0.00 0.12 0.12 81
20260509223449 57 328 3.0 8.0 0.00 0.12 0.12 83
20260509222946 57 231 3.0 9.0 0.00 0.12 0.12 84
20260509222442 57 216 7.0 10.0 0.00 0.12 0.12 85
20260509221938 57 95 4.0 6.0 0.00 0.12 0.12 87
20260509221435 56 241 2.0 10.0 0.00 0.12 0.12 87
20260509220930 55 309 2.0 11.0 0.00 0.12 0.12 86
20260509220426 55 225 7.0 10.0 0.00 0.12 0.12 86
20260509215923 55 320 3.0 7.0 0.00 0.12 0.12 87
20260509215418 54 190 3.0 7.0 0.00 0.12 0.12 88
20260509214916 55 265 2.0 7.0 0.00 0.12 0.12 89
20260509214413 55 256 5.0 7.0 0.05 0.12 0.12 87
20260509213910 54 257 6.0 9.0 0.17 0.12 0.12 84
20260509213405 55 222 5.0 9.0 0.35 0.11 0.11 85
20260509212903 57 40 1.0 7.0 0.31 0.08 0.08 85
20260509212401 58 120 2.0 16.0 0.19 0.04 0.04 79
20260509211856 59 158 5.0 8.0 0.17 0.03 0.03 77
20260509211353 59 54 2.0 5.0 0.05 0.01 0.01 77
20260509210849 60 310 2.0 6.0 0.00 0.00 0.00 75
20260509210347 60 264 0.0 5.0 0.00 0.00 0.00 73
20260509205846 61 171 2.0 6.0 0.00 0.00 0.00 72
20260509205346 62 70 3.0 11.0 0.00 0.00 0.00 68
20260509204843 62 180 5.0 8.0 0.00 0.00 0.00 67
20260509204334 62 70 1.0 10.0 0.00 0.00 0.00 67
20260509203830 62 139 1.0 6.0 0.00 0.00 0.00 66
20260509203327 62 240 2.0 7.0 0.00 0.00 0.00 64
20260509202824 62 136 8.0 13.0 0.00 0.00 0.00 63
20260509202320 63 262 4.0 13.0 0.00 0.00 0.00 63
20260509201819 63 256 4.0 6.0 0.00 0.00 0.00 61
20260509201316 63 182 3.0 9.0 0.00 0.00 0.00 60
20260509200813 64 341 2.0 6.0 0.00 0.00 0.00 61
20260509200308 64 246 2.0 8.0 0.00 0.00 0.00 63
20260509195805 63 229 3.0 14.0 0.00 0.00 0.00 63
20260509195300 63 205 5.0 10.0 0.00 0.00 0.00 62
20260509194759 62 126 4.0 7.0 0.00 0.00 0.00 63
20260509194256 62 277 5.0 10.0 0.00 0.00 0.00 62
20260509193753 63 356 3.0 8.0 0.00 0.00 0.00 62
20260509193252 63 266 3.0 13.0 0.00 0.00 0.00 60
20260509192749 63 279 2.0 6.0 0.00 0.00 0.00 60
20260509192244 63 243 6.0 10.0 0.00 0.00 0.00 60
20260509191740 63 51 3.0 6.0 0.00 0.00 0.00 59
20260509191236 63 151 1.0 8.0 0.00 0.00 0.00 58
20260509190732 64 304 1.0 5.0 0.00 0.00 0.00 58
20260509190230 64 294 7.0 10.0 0.00 0.00 0.00 57
20260509185727 64 199 5.0 10.0 0.00 0.00 0.00 57
20260509185223 64 165 1.0 6.0 0.00 0.00 0.00 56
20260509184721 64 319 6.0 9.0 0.00 0.00 0.00 55
20260509184218 65 6 3.0 3.0 0.00 0.00 0.00 54
20260509183714 66 235 2.0 6.0 0.00 0.00 0.00 54
20260509183209 66 342 2.0 10.0 0.00 0.00 0.00 55
20260509182705 66 231 5.0 9.0 0.00 0.00 0.00 56
20260509182203 66 49 4.0 7.0 0.00 0.00 0.00 56
20260509181700 66 249 1.0 5.0 0.00 0.00 0.00 55
20260509181157 67 195 3.0 8.0 0.00 0.00 0.00 53
20260509180654 67 260 6.0 8.0 0.00 0.00 0.00 53
20260509180150 66 274 3.0 6.0 0.00 0.00 0.00 55